User: anonymous   Login
Location: Newark
(7.0858°N, 171.3717°E)
Time: 14:24:00
(UTC+00:00)
Language:

TIGRISAT - Orbit

View from above orbital plane
View from above orbital plane
View from above satellite
View from above satellite

Ground track
Ground track

The orbit data is extracted from the following two-line orbital elements,

1 40043U 14033AK  19324.16597782  .00000139  00000-0  27969-4 0  9996
2 40043  97.7334 185.2303 0059090 319.2416  40.4380 14.74313518291364
Epoch (UTC): 20 November 2019 03:59:00
Eccentricity: 0.0059090
inclination: 97.7334°
perigee height: 606 km
apogee height: 689 km
right ascension of ascending node: 185.2303°
argument of perigee: 319.2416°
revolutions per day: 14.74313518
mean anomaly at epoch: 40.4380°
orbit number at epoch: 29136

The dashed part of the orbit path shows where the satellite is in the earth's shadow,  

DLR